Vorticity
3 18 20 10 15 10 5 5 4 5 4 5 6 6 4 4 4 6 8 10 10 8 7 12 13 5 31 24 20 19 14 19 27 29 23 14 9 24 7 14 22 6 -17
38 10 9 9 9 5 4 3 4 5 6 6 5 7 11 16 20 22 23 24 22 9 16 16 12 6 32 23 18 14 14 13 5 25 10 -12 32 33 22 34 -23 9 -10
12 9 10 7 5 4 4 6 7 6 9 17 24 28 30 29 29 28 18 19 26 26 13 14 5 -1 27 34 10 19 12 5 21 11 20 15 13 -24 13 22 39 3 5
7 7 4 4 5 6 6 10 19 23 25 23 14 11 13 17 18 17 23 23 27 18 15 8 4 11 35 35 8 11 12 19 19 8 14 27 15 4 8 3 9 7 16
6 8 4 5 8 15 23 23 18 16 19 18 21 19 19 21 24 21 21 20 20 20 22 12 7 10 36 33 21 7 10 5 7 12 17 16 8 11 12 5 7 -1 -6
2 5 8 18 24 22 18 20 18 18 19 23 20 25 36 29 22 21 17 16 15 15 20 17 4 1 13 26 28 32 17 5 4 13 3 1 13 25 23 6 6 12 14
7 17 25 22 20 21 23 24 24 22 22 17 32 25 23 20 18 12 11 10 11 13 15 21 8 0 11 15 26 20 21 29 30 25 18 4 2 -2 7 -9 28 4 11
24 24 20 21 19 22 25 27 27 22 16 14 22 29 28 23 20 18 13 10 8 7 9 12 10 14 0 1 16 13 22 14 12 4 12 11 16 21 18 9 16 23 10
16 18 18 11 3 4 6 13 21 23 24 24 18 14 14 15 18 19 21 23 23 19 14 12 11 13 12 2 9 13 10 27 14 21 28 24 22 26 17 15 20 17 19
16 14 8 4 5 4 4 5 5 12 16 17 18 19 18 19 21 23 22 23 24 24 25 25 27 29 26 25 19 9 8 16 14 22 14 10 12 10 33 40 38 22 20
13 9 5 5 4 4 3 4 5 5 5 5 5 6 5 5 5 4 4 5 6 6 8 9 11 15 22 27 29 29 20 21 9 21 13 13 23 12 19 25 22 28 22
9 7 7 4 3 3 4 3 4 3 3 3 3 3 3 2 3 3 4 4 4 4 5 3 3 4 4 4 7 14 22 23 22 36 28 33 10 11 20 24 12 20 20
9 8 6 5 5 5 4 3 3 3 3 3 3 4 4 4 4 4 4 2 1 1 1 1 1 1 1 2 1 1 2 4 5 7 12 13 46 40 21 20 26 15 13
8 8 7 6 5 4 4 5 5 5 6 5 5 4 4 4 5 4 4 4 4 5 5 4 3 2 1 1 1 2 3 3 2 2 3 6 9 7 3 31 45 19 30
6 6 6 5 5 5 6 6 6 5 4 4 4 4 4 4 4 4 4 4 4 4 3 3 3 2 2 2 2 2 2 0 0 0 2 3 3 4 5 8 11 7 25
6 6 6 5 4 5 5 5 3 4 4 4 4 4 5 6 6 7 7 7 7 7 6 6 6 6 5 5 4 5 5 6 6 5 5 6 6 5 5 5 5 6 7
6 5 5 6 6 6 4 4 2 4 4 5 5 5 5 5 5 5 6 9 13 16 16 18 19 17 17 16 12 7 6 6 5 4 5 5 5 6 6 6 7 6 5
6 6 7 6 5 5 3 3 3 3 3 3 6 6 5 5 9 10 11 7 5 5 6 5 5 10 12 16 21 19 16 16 13 9 8 7 6 6 5 5 7 6 5
7 6 5 4 3 2 3 3 3 4 4 5 5 4 7 8 7 10 8 5 4 6 8 9 10 13 14 15 15 16 18 22 22 21 20 17 14 9 8 8 6 6 6
4 4 4 4 3 3 3 3 4 5 6 6 7 10 10 8 11 6 3 2 4 5 11 15 16 16 15 17 15 12 13 16 18 20 20 18 17 17 19 19 18 15 13
5 5 4 4 4 4 5 5 6 7 8 9 9 6 6 10 10 7 7 9 7 8 14 15 11 12 13 13 14 15 14 12 11 13 14 15 15 14 13 13 13 13 14
6 6 7 6 5 7 7 7 9 10 10 8 6 7 10 10 8 8 9 6 6 8 10 8 8 12 14 14 14 13 12 12 12 13 14 13 12 11 10 9 8 8 9
6 7 7 7 7 9 10 10 10 8 6 5 8 10 10 7 11 12 7 5 6 8 9 9 12 14 14 12 11 12 12 12 12 10 8 7 8 8 9 9 10 10 11
8 9 10 10 9 8 8 7 7 7 7 9 8 7 9 12 11 6 5 5 8 8 8 10 12 12 12 12 11 9 8 7 7 8 9 9 10 11 12 12 12 12 13
9 9 9 8 7 7 8 8 8 9 9 7 8 10 9 10 7 5 6 7 8 8 8 10 12 13 11 9 7 7 8 9 10 11 13 14 15 17 18 19 19 20 20
9 9 9 9 9 9 10 9 9 9 8 8 9 11 9 8 6 7 7 8 8 8 9 12 12 10 8 7 9 10 11 13 15 18 21 22 22 21 18 16 15 15 16
Height
5627 5625 5622 5620 5617 5614 5611 5608 5603 5599 5594 5589 5585 5581 5577 5573 5568 5564 5561 5558 5556 5554 5553 5552 5548 5544 5540 5536 5536 5537 5539 5542 5551 5559 5566 5573 5581 5590 5593 5598 5605 5613 5618
5616 5613 5612 5610 5607 5604 5600 5595 5590 5585 5579 5574 5568 5563 5558 5553 5549 5545 5541 5539 5539 5539 5539 5538 5535 5531 5526 5524 5524 5526 5529 5533 5540 5548 5554 5558 5559 5568 5573 5577 5588 5593 5601
5607 5605 5603 5601 5597 5592 5588 5582 5576 5569 5563 5557 5551 5545 5540 5535 5531 5527 5524 5523 5523 5525 5526 5526 5525 5521 5515 5513 5514 5516 5519 5523 5528 5535 5540 5542 5540 5550 5560 5566 5572 5577 5585
5600 5598 5595 5591 5587 5580 5575 5569 5562 5555 5549 5543 5537 5531 5525 5521 5517 5514 5512 5511 5511 5513 5514 5515 5515 5511 5505 5503 5504 5506 5509 5513 5517 5522 5527 5530 5532 5539 5546 5552 5559 5564 5570
5593 5590 5585 5581 5575 5569 5563 5557 5550 5544 5537 5530 5523 5518 5513 5509 5506 5505 5504 5503 5503 5504 5504 5504 5505 5502 5495 5493 5494 5496 5500 5503 5507 5510 5515 5519 5522 5526 5532 5537 5544 5549 5552
5584 5581 5577 5571 5565 5560 5554 5546 5539 5533 5525 5519 5512 5506 5502 5500 5499 5499 5498 5497 5497 5496 5496 5497 5496 5493 5490 5486 5485 5486 5489 5493 5496 5500 5503 5507 5511 5513 5518 5522 5526 5532 5538
5577 5573 5568 5564 5560 5552 5544 5538 5531 5525 5521 5515 5506 5501 5498 5496 5495 5494 5494 5493 5492 5491 5491 5490 5489 5487 5484 5480 5479 5479 5480 5481 5484 5488 5491 5494 5497 5500 5504 5507 5511 5515 5519
5569 5565 5563 5559 5553 5549 5541 5534 5528 5522 5517 5512 5506 5501 5498 5495 5493 5492 5490 5489 5488 5486 5486 5486 5485 5482 5480 5477 5473 5473 5474 5474 5476 5477 5479 5480 5482 5483 5485 5489 5494 5498 5502
5563 5561 5558 5555 5552 5547 5541 5536 5530 5524 5518 5513 5508 5504 5500 5497 5494 5491 5488 5486 5484 5483 5481 5480 5479 5478 5476 5473 5471 5468 5467 5466 5466 5467 5467 5468 5468 5468 5469 5472 5477 5481 5485
5559 5556 5555 5553 5550 5546 5542 5538 5533 5528 5522 5517 5512 5507 5502 5499 5495 5492 5489 5486 5484 5481 5479 5477 5475 5473 5470 5468 5466 5465 5464 5461 5460 5458 5457 5457 5455 5455 5454 5455 5458 5464 5469
5555 5554 5553 5551 5548 5546 5543 5540 5536 5531 5526 5521 5516 5512 5507 5504 5500 5497 5493 5490 5487 5484 5481 5477 5475 5471 5468 5465 5462 5460 5458 5456 5453 5451 5449 5448 5446 5445 5443 5442 5445 5450 5455
5553 5552 5551 5549 5547 5545 5543 5539 5536 5532 5527 5523 5519 5515 5511 5507 5504 5500 5497 5494 5491 5487 5484 5480 5477 5473 5470 5466 5462 5458 5455 5451 5448 5446 5443 5441 5439 5436 5434 5433 5434 5438 5442
5551 5550 5549 5547 5546 5543 5541 5538 5534 5530 5526 5522 5518 5515 5511 5508 5504 5501 5498 5494 5490 5487 5483 5480 5476 5472 5469 5465 5462 5458 5454 5451 5447 5443 5439 5435 5431 5428 5427 5425 5425 5427 5430
5548 5547 5546 5545 5543 5541 5538 5535 5531 5527 5524 5521 5517 5513 5510 5506 5503 5499 5495 5492 5488 5485 5481 5477 5473 5470 5466 5463 5459 5455 5452 5448 5444 5441 5436 5433 5429 5425 5422 5418 5416 5416 5418
5546 5545 5543 5542 5539 5537 5534 5531 5528 5525 5521 5517 5514 5511 5507 5503 5500 5496 5492 5488 5484 5480 5476 5472 5468 5464 5459 5455 5451 5448 5445 5441 5438 5434 5431 5427 5423 5420 5417 5414 5412 5409 5408
5541 5540 5539 5537 5535 5532 5529 5526 5524 5520 5517 5513 5510 5506 5502 5498 5494 5490 5485 5481 5476 5472 5468 5463 5459 5454 5450 5446 5442 5438 5434 5431 5427 5423 5420 5417 5414 5411 5408 5406 5404 5402 5400
5537 5536 5534 5532 5530 5527 5524 5521 5518 5514 5510 5507 5502 5498 5495 5491 5485 5481 5476 5471 5467 5462 5457 5452 5447 5442 5438 5433 5429 5424 5420 5416 5413 5410 5406 5403 5400 5397 5395 5393 5390 5388 5386
5532 5530 5528 5526 5523 5521 5518 5515 5512 5508 5505 5502 5497 5492 5485 5481 5476 5470 5465 5460 5455 5449 5444 5439 5433 5427 5422 5416 5411 5407 5402 5398 5394 5391 5388 5385 5383 5381 5378 5376 5373 5372 5370
5527 5524 5522 5519 5517 5514 5511 5508 5504 5501 5497 5492 5488 5484 5478 5472 5468 5462 5456 5449 5444 5437 5431 5424 5418 5411 5405 5399 5394 5389 5384 5379 5375 5372 5368 5366 5363 5361 5359 5356 5354 5352 5351
5520 5518 5515 5513 5510 5506 5503 5499 5496 5492 5488 5483 5478 5473 5467 5461 5455 5450 5444 5438 5432 5425 5419 5412 5404 5397 5390 5384 5378 5372 5368 5363 5358 5354 5350 5346 5343 5341 5339 5336 5334 5333 5330
5513 5510 5507 5504 5501 5498 5495 5490 5487 5483 5478 5472 5466 5462 5456 5449 5443 5437 5431 5425 5418 5411 5404 5398 5391 5384 5377 5370 5364 5357 5351 5346 5341 5337 5333 5329 5325 5322 5318 5316 5313 5311 5309
5504 5502 5499 5495 5491 5488 5485 5480 5476 5471 5466 5460 5454 5449 5443 5438 5431 5425 5418 5412 5405 5397 5390 5383 5376 5369 5362 5354 5348 5342 5336 5330 5324 5319 5314 5310 5306 5303 5299 5296 5292 5288 5285
5495 5492 5489 5485 5482 5479 5475 5469 5464 5459 5453 5448 5442 5436 5429 5423 5417 5410 5404 5397 5390 5382 5375 5367 5359 5352 5345 5338 5331 5325 5319 5313 5307 5302 5296 5291 5286 5281 5277 5273 5269 5266 5262
5485 5482 5478 5474 5470 5466 5461 5457 5451 5446 5440 5434 5428 5422 5416 5409 5402 5396 5389 5382 5374 5367 5358 5350 5342 5335 5328 5320 5314 5307 5300 5294 5288 5282 5276 5271 5264 5258 5253 5248 5243 5238 5234
5475 5471 5467 5463 5458 5454 5449 5444 5438 5432 5427 5421 5414 5408 5401 5394 5388 5381 5374 5366 5358 5350 5341 5333 5325 5317 5309 5302 5295 5288 5280 5273 5267 5260 5253 5246 5239 5233 5227 5222 5217 5212 5208
5461 5458 5454 5450 5445 5440 5435 5430 5424 5418 5412 5406 5400 5393 5387 5380 5373 5365 5358 5350 5342 5333 5325 5316 5307 5299 5291 5283 5275 5267 5259 5250 5242 5235 5228 5221 5215 5210 5205 5200 5194 5190 5186